GEFSNGP_prec_meanprecacc_276.txt.gz
Total_Precipitation_Accumulation
0.28 0.27 0.36 0.56 0.66 0.64 0.63 0.70 0.93 0.93 0.83 0.78 0.74 0.76 0.77 0.81 0.79 0.71 0.66 0.67 0.72 0.78 0.79 0.76 0.72 0.77 0.82 0.88 0.98 1.13 1.27 1.26 1.13 0.96 0.86 0.81 0.78 0.69 0.66 0.66 0.66 0.75 0.80 0.81
0.17 0.16 0.25 0.40 0.50 0.51 0.49 0.49 0.59 0.66 0.64 0.54 0.51 0.55 0.56 0.58 0.54 0.50 0.46 0.43 0.42 0.44 0.44 0.43 0.40 0.39 0.42 0.50 0.65 0.88 1.14 1.12 0.93 0.77 0.64 0.60 0.63 0.65 0.65 0.62 0.65 0.70 0.68 0.70
0.20 0.15 0.22 0.44 0.44 0.41 0.43 0.36 0.37 0.43 0.42 0.38 0.41 0.47 0.48 0.53 0.55 0.42 0.34 0.32 0.31 0.31 0.31 0.30 0.30 0.29 0.32 0.39 0.51 0.68 0.79 0.78 0.68 0.58 0.55 0.59 0.62 0.57 0.59 0.62 0.62 0.63 0.63 0.62
0.24 0.25 0.52 0.71 0.59 0.50 0.46 0.28 0.22 0.23 0.25 0.28 0.38 0.42 0.43 0.42 0.43 0.42 0.31 0.23 0.22 0.22 0.22 0.26 0.28 0.31 0.35 0.41 0.46 0.50 0.53 0.55 0.50 0.48 0.49 0.53 0.55 0.55 0.62 0.68 0.66 0.66 0.68 0.66
0.36 0.42 0.60 0.65 0.56 0.55 0.54 0.39 0.20 0.17 0.18 0.17 0.17 0.19 0.23 0.24 0.24 0.23 0.20 0.16 0.15 0.14 0.14 0.16 0.16 0.17 0.19 0.21 0.23 0.24 0.23 0.24 0.26 0.26 0.29 0.31 0.33 0.40 0.52 0.59 0.62 0.67 0.72 0.72
0.40 0.49 0.61 0.48 0.30 0.31 0.45 0.56 0.19 0.12 0.12 0.11 0.10 0.15 0.17 0.18 0.19 0.17 0.14 0.15 0.14 0.11 0.12 0.13 0.13 0.13 0.11 0.12 0.12 0.13 0.13 0.14 0.17 0.19 0.19 0.18 0.22 0.27 0.33 0.34 0.41 0.51 0.54 0.56
0.37 0.56 0.74 0.54 0.32 0.29 0.52 0.56 0.17 0.10 0.09 0.10 0.12 0.12 0.13 0.15 0.17 0.15 0.13 0.14 0.15 0.13 0.12 0.13 0.14 0.13 0.12 0.12 0.12 0.14 0.17 0.20 0.21 0.20 0.21 0.22 0.24 0.26 0.28 0.29 0.33 0.37 0.41 0.45
0.46 0.76 0.95 0.72 0.49 0.45 0.37 0.18 0.10 0.07 0.07 0.09 0.10 0.10 0.12 0.14 0.15 0.14 0.13 0.13 0.15 0.14 0.14 0.15 0.14 0.13 0.14 0.14 0.15 0.15 0.17 0.19 0.21 0.23 0.23 0.24 0.25 0.29 0.31 0.32 0.31 0.32 0.33 0.37
0.42 0.65 0.67 0.59 0.46 0.34 0.25 0.14 0.07 0.06 0.08 0.11 0.12 0.12 0.15 0.16 0.14 0.14 0.14 0.13 0.13 0.14 0.14 0.14 0.14 0.13 0.13 0.15 0.16 0.17 0.18 0.18 0.21 0.23 0.23 0.21 0.24 0.28 0.30 0.32 0.33 0.35 0.38 0.43
0.20 0.27 0.28 0.29 0.27 0.20 0.16 0.12 0.07 0.08 0.11 0.14 0.16 0.16 0.14 0.14 0.14 0.12 0.12 0.12 0.12 0.13 0.14 0.15 0.16 0.16 0.17 0.17 0.17 0.16 0.18 0.20 0.21 0.21 0.21 0.21 0.23 0.26 0.28 0.31 0.34 0.38 0.43 0.47
0.20 0.16 0.14 0.16 0.17 0.15 0.12 0.09 0.08 0.09 0.12 0.13 0.14 0.14 0.12 0.11 0.13 0.13 0.12 0.13 0.15 0.16 0.15 0.16 0.18 0.19 0.23 0.23 0.20 0.18 0.18 0.19 0.19 0.19 0.20 0.21 0.22 0.24 0.24 0.26 0.33 0.41 0.47 0.51
0.22 0.16 0.16 0.16 0.15 0.12 0.11 0.08 0.07 0.07 0.09 0.10 0.11 0.12 0.12 0.11 0.11 0.13 0.14 0.14 0.16 0.18 0.18 0.17 0.18 0.20 0.22 0.25 0.26 0.26 0.23 0.21 0.19 0.19 0.20 0.21 0.22 0.23 0.25 0.26 0.32 0.35 0.37 0.38
0.16 0.13 0.13 0.13 0.13 0.11 0.09 0.08 0.07 0.07 0.08 0.10 0.11 0.12 0.14 0.13 0.12 0.13 0.15 0.14 0.14 0.15 0.16 0.16 0.16 0.15 0.15 0.17 0.20 0.21 0.22 0.22 0.21 0.20 0.20 0.22 0.23 0.24 0.26 0.25 0.24 0.26 0.29 0.32
0.11 0.12 0.13 0.11 0.11 0.10 0.09 0.09 0.08 0.07 0.07 0.08 0.10 0.12 0.13 0.14 0.12 0.11 0.12 0.12 0.13 0.14 0.14 0.14 0.13 0.13 0.13 0.13 0.15 0.17 0.19 0.20 0.21 0.24 0.25 0.26 0.28 0.32 0.35 0.37 0.35 0.28 0.26 0.28
0.10 0.10 0.11 0.11 0.11 0.10 0.10 0.10 0.10 0.10 0.10 0.11 0.11 0.12 0.12 0.13 0.12 0.11 0.12 0.13 0.13 0.15 0.15 0.16 0.15 0.13 0.12 0.12 0.12 0.13 0.15 0.18 0.21 0.29 0.33 0.33 0.35 0.40 0.41 0.36 0.32 0.32 0.31 0.29
0.12 0.11 0.12 0.12 0.13 0.12 0.10 0.10 0.10 0.11 0.11 0.12 0.14 0.15 0.14 0.13 0.12 0.11 0.12 0.13 0.14 0.15 0.16 0.17 0.17 0.16 0.15 0.12 0.11 0.11 0.13 0.18 0.21 0.26 0.29 0.30 0.33 0.37 0.37 0.37 0.36 0.38 0.39 0.41
0.14 0.14 0.15 0.17 0.17 0.14 0.12 0.12 0.13 0.13 0.14 0.15 0.17 0.17 0.17 0.16 0.16 0.15 0.14 0.13 0.13 0.15 0.15 0.16 0.18 0.18 0.17 0.15 0.14 0.15 0.16 0.19 0.22 0.24 0.25 0.26 0.29 0.33 0.35 0.37 0.39 0.40 0.40 0.44
0.15 0.15 0.15 0.18 0.18 0.16 0.13 0.13 0.14 0.15 0.16 0.17 0.19 0.20 0.21 0.21 0.21 0.20 0.19 0.18 0.17 0.19 0.19 0.19 0.20 0.20 0.19 0.18 0.18 0.18 0.19 0.20 0.22 0.25 0.26 0.26 0.30 0.35 0.39 0.39 0.37 0.39 0.39 0.43
0.20 0.19 0.18 0.19 0.19 0.18 0.16 0.15 0.14 0.16 0.17 0.17 0.18 0.20 0.21 0.22 0.21 0.20 0.20 0.21 0.21 0.20 0.17 0.16 0.18 0.17 0.17 0.18 0.21 0.21 0.23 0.26 0.27 0.29 0.29 0.29 0.32 0.36 0.40 0.39 0.38 0.40 0.41 0.43
0.21 0.20 0.18 0.18 0.17 0.17 0.17 0.16 0.15 0.17 0.19 0.18 0.18 0.19 0.21 0.20 0.20 0.20 0.21 0.22 0.21 0.18 0.13 0.14 0.16 0.17 0.18 0.20 0.23 0.24 0.27 0.31 0.35 0.37 0.37 0.37 0.38 0.41 0.42 0.40 0.41 0.44 0.45 0.45
0.18 0.17 0.17 0.17 0.17 0.17 0.17 0.16 0.17 0.17 0.18 0.19 0.19 0.20 0.21 0.20 0.19 0.20 0.22 0.24 0.22 0.18 0.13 0.14 0.13 0.14 0.18 0.23 0.27 0.28 0.29 0.32 0.35 0.38 0.38 0.39 0.40 0.42 0.45 0.43 0.44 0.47 0.48 0.48
0.17 0.15 0.14 0.13 0.13 0.14 0.15 0.15 0.15 0.14 0.16 0.18 0.19 0.20 0.20 0.19 0.18 0.19 0.20 0.22 0.23 0.24 0.19 0.15 0.15 0.18 0.25 0.29 0.24 0.25 0.27 0.30 0.34 0.38 0.41 0.42 0.43 0.45 0.47 0.48 0.49 0.49 0.50 0.53
0.18 0.16 0.15 0.14 0.13 0.13 0.15 0.16 0.14 0.14 0.16 0.16 0.17 0.18 0.20 0.23 0.23 0.23 0.22 0.21 0.22 0.27 0.24 0.21 0.23 0.29 0.37 0.30 0.24 0.25 0.27 0.29 0.31 0.34 0.40 0.45 0.48 0.49 0.51 0.50 0.50 0.52 0.54 0.57
0.19 0.17 0.15 0.14 0.13 0.15 0.18 0.18 0.16 0.16 0.17 0.18 0.17 0.16 0.17 0.21 0.25 0.24 0.25 0.28 0.31 0.32 0.27 0.28 0.33 0.39 0.42 0.34 0.31 0.30 0.32 0.33 0.33 0.33 0.36 0.40 0.45 0.48 0.51 0.53 0.55 0.56 0.54 0.54
0.20 0.18 0.18 0.19 0.21 0.22 0.20 0.20 0.20 0.19 0.20 0.22 0.21 0.18 0.17 0.20 0.25 0.27 0.26 0.27 0.34 0.38 0.34 0.36 0.41 0.44 0.41 0.38 0.38 0.38 0.39 0.41 0.42 0.42 0.41 0.42 0.47 0.51 0.55 0.57 0.61 0.64 0.63 0.60
0.22 0.21 0.23 0.26 0.27 0.25 0.24 0.25 0.23 0.22 0.22 0.23 0.23 0.20 0.20 0.21 0.22 0.23 0.25 0.27 0.30 0.39 0.43 0.43 0.43 0.44 0.44 0.46 0.46 0.45 0.44 0.44 0.45 0.45 0.45 0.49 0.53 0.58 0.64 0.68 0.69 0.72 0.71 0.66
0.23 0.24 0.26 0.26 0.25 0.26 0.27 0.28 0.26 0.24 0.23 0.24 0.24 0.22 0.23 0.25 0.26 0.27 0.28 0.32 0.35 0.38 0.45 0.52 0.51 0.52 0.54 0.53 0.53 0.52 0.52 0.52 0.52 0.53 0.53 0.56 0.59 0.62 0.66 0.72 0.75 0.78 0.79 0.77

GEFSNGP_prec_meanprecacc_282.txt.gz
Total_Precipitation_Accumulation
0.29 0.28 0.36 0.57 0.67 0.65 0.64 0.71 0.94 0.93 0.84 0.80 0.80 0.82 0.79 0.82 0.80 0.72 0.66 0.67 0.72 0.78 0.80 0.78 0.75 0.81 0.84 0.91 1.02 1.17 1.31 1.29 1.16 1.00 0.89 0.84 0.80 0.71 0.68 0.67 0.68 0.76 0.81 0.83
0.17 0.16 0.25 0.40 0.50 0.52 0.50 0.51 0.60 0.66 0.65 0.55 0.53 0.56 0.57 0.59 0.55 0.51 0.46 0.43 0.43 0.45 0.45 0.44 0.41 0.40 0.43 0.51 0.67 0.91 1.17 1.16 0.96 0.79 0.67 0.62 0.64 0.66 0.66 0.63 0.66 0.71 0.70 0.72
0.21 0.15 0.22 0.44 0.44 0.42 0.43 0.36 0.38 0.44 0.43 0.39 0.42 0.48 0.49 0.54 0.56 0.44 0.35 0.33 0.32 0.31 0.31 0.30 0.30 0.30 0.32 0.40 0.52 0.70 0.82 0.80 0.70 0.60 0.57 0.60 0.63 0.59 0.60 0.62 0.63 0.65 0.64 0.64
0.25 0.27 0.53 0.72 0.60 0.50 0.47 0.29 0.23 0.25 0.26 0.30 0.40 0.43 0.44 0.43 0.44 0.44 0.33 0.24 0.23 0.23 0.24 0.28 0.29 0.32 0.36 0.42 0.47 0.52 0.55 0.57 0.52 0.50 0.51 0.55 0.57 0.56 0.63 0.69 0.67 0.66 0.69 0.67
0.37 0.44 0.63 0.67 0.58 0.57 0.56 0.41 0.22 0.19 0.19 0.18 0.19 0.21 0.24 0.25 0.24 0.24 0.20 0.17 0.15 0.15 0.15 0.18 0.18 0.19 0.20 0.23 0.25 0.26 0.25 0.26 0.27 0.28 0.31 0.33 0.34 0.41 0.53 0.60 0.63 0.67 0.72 0.73
0.42 0.51 0.63 0.50 0.32 0.33 0.48 0.59 0.21 0.14 0.14 0.13 0.11 0.16 0.18 0.20 0.20 0.17 0.14 0.15 0.15 0.13 0.14 0.15 0.15 0.15 0.13 0.14 0.14 0.15 0.15 0.15 0.18 0.20 0.20 0.19 0.23 0.28 0.34 0.35 0.42 0.53 0.55 0.57
0.39 0.58 0.76 0.56 0.34 0.30 0.55 0.59 0.20 0.12 0.11 0.11 0.13 0.13 0.13 0.16 0.18 0.15 0.14 0.14 0.16 0.15 0.15 0.16 0.17 0.15 0.14 0.14 0.14 0.15 0.19 0.21 0.21 0.21 0.21 0.22 0.25 0.27 0.29 0.30 0.35 0.39 0.43 0.47
0.48 0.78 0.97 0.74 0.51 0.47 0.41 0.21 0.13 0.09 0.09 0.11 0.11 0.11 0.13 0.15 0.16 0.15 0.13 0.14 0.15 0.15 0.17 0.18 0.17 0.15 0.15 0.15 0.15 0.16 0.19 0.20 0.22 0.23 0.24 0.25 0.26 0.30 0.33 0.34 0.34 0.35 0.36 0.41
0.44 0.68 0.70 0.60 0.48 0.36 0.28 0.17 0.09 0.08 0.10 0.13 0.13 0.13 0.16 0.17 0.15 0.15 0.14 0.13 0.13 0.14 0.14 0.15 0.15 0.14 0.14 0.16 0.17 0.17 0.19 0.20 0.22 0.24 0.23 0.22 0.25 0.30 0.33 0.35 0.36 0.38 0.41 0.47
0.23 0.30 0.31 0.30 0.28 0.21 0.17 0.14 0.09 0.10 0.13 0.17 0.18 0.17 0.15 0.16 0.16 0.14 0.14 0.13 0.12 0.14 0.15 0.16 0.17 0.16 0.18 0.17 0.17 0.17 0.19 0.21 0.22 0.22 0.22 0.23 0.25 0.29 0.32 0.35 0.38 0.42 0.47 0.50
0.21 0.19 0.17 0.17 0.18 0.16 0.12 0.10 0.09 0.11 0.15 0.17 0.17 0.18 0.16 0.15 0.17 0.16 0.14 0.14 0.16 0.17 0.16 0.16 0.18 0.20 0.23 0.24 0.21 0.18 0.19 0.21 0.20 0.21 0.22 0.24 0.26 0.28 0.30 0.31 0.38 0.47 0.51 0.54
0.22 0.17 0.17 0.19 0.16 0.13 0.11 0.09 0.08 0.09 0.11 0.13 0.14 0.16 0.15 0.13 0.13 0.15 0.16 0.15 0.17 0.18 0.18 0.18 0.18 0.20 0.22 0.25 0.27 0.27 0.25 0.22 0.21 0.21 0.23 0.24 0.26 0.26 0.29 0.31 0.36 0.39 0.40 0.43
0.16 0.14 0.13 0.14 0.14 0.12 0.10 0.09 0.08 0.09 0.10 0.11 0.13 0.14 0.15 0.14 0.13 0.14 0.16 0.15 0.15 0.15 0.16 0.16 0.16 0.15 0.15 0.18 0.21 0.22 0.24 0.24 0.23 0.22 0.23 0.25 0.26 0.26 0.29 0.28 0.27 0.29 0.32 0.35
0.11 0.12 0.13 0.11 0.11 0.10 0.10 0.09 0.09 0.08 0.08 0.09 0.12 0.13 0.14 0.14 0.13 0.12 0.13 0.12 0.13 0.14 0.14 0.14 0.14 0.14 0.14 0.14 0.17 0.20 0.21 0.23 0.24 0.27 0.28 0.29 0.31 0.34 0.36 0.39 0.37 0.31 0.28 0.30
0.10 0.11 0.12 0.11 0.11 0.10 0.10 0.11 0.11 0.10 0.11 0.12 0.12 0.13 0.13 0.13 0.13 0.12 0.12 0.13 0.14 0.15 0.15 0.16 0.15 0.14 0.14 0.14 0.15 0.15 0.17 0.21 0.24 0.32 0.36 0.36 0.38 0.42 0.43 0.38 0.34 0.33 0.32 0.30
0.12 0.12 0.12 0.13 0.14 0.13 0.11 0.11 0.11 0.11 0.11 0.12 0.14 0.16 0.16 0.14 0.13 0.12 0.12 0.13 0.14 0.15 0.16 0.17 0.17 0.17 0.16 0.14 0.13 0.14 0.15 0.21 0.24 0.28 0.31 0.33 0.36 0.39 0.40 0.39 0.37 0.39 0.40 0.42
0.14 0.14 0.15 0.17 0.17 0.15 0.13 0.13 0.13 0.14 0.14 0.15 0.17 0.17 0.18 0.17 0.17 0.16 0.14 0.13 0.14 0.15 0.16 0.17 0.19 0.19 0.18 0.16 0.16 0.16 0.18 0.21 0.24 0.26 0.27 0.29 0.32 0.37 0.39 0.40 0.42 0.43 0.43 0.46
0.15 0.15 0.16 0.18 0.18 0.16 0.13 0.13 0.14 0.15 0.17 0.18 0.19 0.20 0.22 0.22 0.22 0.21 0.20 0.18 0.18 0.19 0.20 0.20 0.21 0.21 0.20 0.19 0.19 0.20 0.21 0.22 0.24 0.28 0.29 0.29 0.33 0.37 0.41 0.41 0.40 0.41 0.42 0.46
0.20 0.19 0.18 0.19 0.19 0.18 0.17 0.15 0.15 0.16 0.17 0.17 0.18 0.20 0.22 0.22 0.22 0.21 0.21 0.22 0.21 0.21 0.18 0.17 0.20 0.18 0.18 0.19 0.22 0.23 0.25 0.27 0.28 0.30 0.31 0.31 0.34 0.38 0.41 0.40 0.39 0.40 0.42 0.44
0.21 0.20 0.18 0.18 0.18 0.18 0.18 0.16 0.16 0.18 0.19 0.19 0.18 0.19 0.21 0.21 0.20 0.20 0.22 0.22 0.22 0.19 0.14 0.15 0.17 0.18 0.19 0.21 0.24 0.25 0.28 0.32 0.36 0.38 0.38 0.38 0.39 0.41 0.43 0.41 0.42 0.45 0.45 0.46
0.18 0.17 0.17 0.17 0.17 0.17 0.17 0.16 0.17 0.18 0.18 0.19 0.19 0.20 0.21 0.20 0.19 0.20 0.22 0.25 0.22 0.18 0.13 0.14 0.14 0.14 0.18 0.24 0.28 0.28 0.30 0.33 0.36 0.38 0.39 0.40 0.41 0.43 0.45 0.43 0.44 0.47 0.48 0.48
0.18 0.16 0.14 0.14 0.13 0.14 0.15 0.15 0.15 0.14 0.16 0.18 0.19 0.20 0.20 0.19 0.18 0.19 0.20 0.23 0.23 0.24 0.19 0.16 0.15 0.18 0.25 0.30 0.26 0.26 0.28 0.31 0.34 0.39 0.41 0.42 0.44 0.45 0.47 0.49 0.49 0.50 0.52 0.54
0.19 0.17 0.15 0.14 0.13 0.13 0.15 0.16 0.14 0.14 0.16 0.16 0.17 0.18 0.20 0.23 0.23 0.23 0.22 0.21 0.22 0.27 0.24 0.21 0.23 0.30 0.37 0.31 0.25 0.26 0.28 0.30 0.31 0.35 0.40 0.46 0.48 0.50 0.52 0.51 0.51 0.53 0.55 0.58
0.20 0.18 0.16 0.15 0.14 0.15 0.18 0.18 0.16 0.16 0.17 0.18 0.17 0.16 0.17 0.21 0.25 0.25 0.25 0.28 0.32 0.32 0.27 0.28 0.33 0.39 0.42 0.34 0.31 0.31 0.32 0.34 0.34 0.34 0.37 0.41 0.46 0.49 0.52 0.54 0.57 0.58 0.57 0.56
0.20 0.19 0.19 0.19 0.21 0.22 0.20 0.20 0.20 0.19 0.20 0.22 0.21 0.18 0.17 0.20 0.25 0.27 0.26 0.27 0.35 0.38 0.34 0.36 0.41 0.44 0.41 0.38 0.38 0.38 0.39 0.42 0.43 0.43 0.42 0.44 0.48 0.53 0.57 0.59 0.63 0.66 0.65 0.62
0.22 0.22 0.24 0.26 0.27 0.25 0.24 0.25 0.23 0.22 0.22 0.23 0.23 0.20 0.20 0.21 0.22 0.24 0.25 0.27 0.30 0.39 0.43 0.44 0.43 0.44 0.44 0.46 0.47 0.45 0.44 0.45 0.46 0.46 0.47 0.51 0.55 0.60 0.65 0.69 0.70 0.73 0.72 0.67
0.24 0.25 0.26 0.26 0.25 0.26 0.28 0.28 0.26 0.24 0.23 0.25 0.25 0.23 0.23 0.25 0.26 0.27 0.29 0.32 0.35 0.38 0.46 0.52 0.52 0.52 0.55 0.54 0.54 0.54 0.53 0.54 0.54 0.55 0.55 0.57 0.61 0.64 0.68 0.73 0.76 0.79 0.80 0.78

GEFSNGP_prec_meanprecacc_288.txt.gz
Total_Precipitation_Accumulation
0.30 0.28 0.38 0.60 0.69 0.66 0.65 0.72 0.95 0.96 0.86 0.81 0.82 0.84 0.80 0.83 0.81 0.73 0.68 0.69 0.73 0.79 0.81 0.78 0.76 0.82 0.86 0.93 1.04 1.20 1.34 1.33 1.20 1.03 0.92 0.86 0.81 0.73 0.70 0.69 0.71 0.78 0.83 0.84
0.20 0.18 0.27 0.41 0.51 0.52 0.50 0.52 0.61 0.68 0.67 0.57 0.54 0.57 0.58 0.61 0.57 0.53 0.48 0.44 0.44 0.46 0.46 0.45 0.42 0.41 0.44 0.53 0.69 0.93 1.19 1.18 0.98 0.82 0.69 0.63 0.66 0.68 0.69 0.66 0.69 0.74 0.71 0.73
0.28 0.22 0.24 0.45 0.45 0.42 0.44 0.37 0.40 0.46 0.45 0.40 0.43 0.49 0.50 0.56 0.57 0.45 0.36 0.34 0.33 0.32 0.32 0.31 0.31 0.31 0.33 0.41 0.53 0.71 0.83 0.82 0.72 0.62 0.59 0.62 0.66 0.61 0.63 0.65 0.65 0.66 0.66 0.65
0.29 0.32 0.56 0.74 0.61 0.51 0.48 0.30 0.25 0.27 0.28 0.31 0.41 0.44 0.45 0.44 0.45 0.44 0.33 0.25 0.24 0.24 0.25 0.29 0.30 0.34 0.38 0.44 0.49 0.53 0.56 0.58 0.54 0.52 0.53 0.57 0.59 0.58 0.65 0.70 0.68 0.67 0.69 0.68
0.40 0.47 0.66 0.69 0.59 0.58 0.58 0.42 0.23 0.21 0.21 0.20 0.20 0.23 0.25 0.26 0.25 0.25 0.21 0.17 0.16 0.15 0.16 0.19 0.19 0.20 0.22 0.25 0.27 0.28 0.27 0.27 0.29 0.30 0.33 0.35 0.37 0.43 0.55 0.62 0.65 0.69 0.74 0.74
0.43 0.53 0.67 0.53 0.33 0.34 0.49 0.62 0.23 0.15 0.15 0.14 0.13 0.19 0.20 0.21 0.21 0.18 0.15 0.16 0.15 0.13 0.14 0.15 0.15 0.15 0.14 0.15 0.16 0.17 0.17 0.17 0.19 0.21 0.21 0.21 0.25 0.30 0.36 0.37 0.44 0.55 0.57 0.59
0.40 0.59 0.78 0.58 0.36 0.32 0.56 0.61 0.21 0.13 0.12 0.12 0.14 0.14 0.14 0.17 0.19 0.16 0.14 0.15 0.16 0.15 0.15 0.16 0.17 0.15 0.14 0.15 0.15 0.18 0.21 0.24 0.23 0.22 0.23 0.24 0.26 0.29 0.31 0.32 0.37 0.42 0.46 0.50
0.49 0.79 0.99 0.75 0.51 0.49 0.42 0.22 0.14 0.10 0.10 0.12 0.12 0.12 0.14 0.16 0.17 0.15 0.14 0.14 0.15 0.16 0.17 0.19 0.17 0.15 0.15 0.16 0.16 0.17 0.21 0.23 0.25 0.25 0.25 0.26 0.28 0.31 0.34 0.35 0.36 0.38 0.40 0.45
0.45 0.69 0.71 0.62 0.48 0.37 0.29 0.18 0.10 0.09 0.10 0.14 0.15 0.14 0.17 0.18 0.16 0.16 0.16 0.14 0.14 0.15 0.14 0.15 0.16 0.15 0.14 0.16 0.18 0.19 0.20 0.22 0.24 0.25 0.25 0.23 0.26 0.31 0.34 0.37 0.38 0.41 0.45 0.51
0.24 0.31 0.32 0.31 0.29 0.21 0.18 0.14 0.10 0.10 0.14 0.18 0.19 0.19 0.17 0.17 0.18 0.17 0.16 0.14 0.13 0.14 0.15 0.16 0.17 0.17 0.18 0.18 0.17 0.18 0.22 0.25 0.26 0.25 0.25 0.25 0.27 0.31 0.34 0.37 0.41 0.45 0.50 0.54
0.22 0.21 0.18 0.18 0.19 0.17 0.13 0.10 0.09 0.11 0.15 0.18 0.19 0.19 0.17 0.17 0.19 0.18 0.15 0.15 0.17 0.18 0.16 0.17 0.19 0.21 0.23 0.24 0.21 0.19 0.20 0.22 0.22 0.24 0.26 0.27 0.28 0.30 0.32 0.34 0.42 0.50 0.55 0.58
0.23 0.18 0.19 0.20 0.17 0.13 0.12 0.10 0.09 0.09 0.12 0.14 0.16 0.17 0.17 0.15 0.17 0.19 0.19 0.17 0.19 0.20 0.20 0.19 0.20 0.22 0.23 0.26 0.27 0.27 0.25 0.23 0.22 0.22 0.25 0.27 0.28 0.29 0.32 0.33 0.38 0.42 0.44 0.46
0.16 0.14 0.13 0.14 0.15 0.13 0.11 0.09 0.09 0.09 0.11 0.12 0.14 0.16 0.18 0.16 0.15 0.17 0.18 0.17 0.17 0.18 0.18 0.18 0.18 0.17 0.17 0.20 0.22 0.24 0.25 0.25 0.24 0.23 0.24 0.27 0.29 0.28 0.31 0.31 0.30 0.33 0.36 0.39
0.11 0.12 0.13 0.11 0.12 0.11 0.11 0.10 0.09 0.08 0.09 0.10 0.12 0.14 0.15 0.15 0.13 0.13 0.14 0.15 0.16 0.16 0.16 0.16 0.17 0.17 0.17 0.17 0.19 0.22 0.23 0.24 0.25 0.28 0.28 0.30 0.34 0.36 0.38 0.40 0.40 0.34 0.31 0.33
0.10 0.11 0.12 0.11 0.11 0.10 0.11 0.11 0.12 0.11 0.12 0.13 0.13 0.14 0.14 0.14 0.14 0.13 0.14 0.15 0.15 0.16 0.16 0.18 0.17 0.16 0.17 0.17 0.18 0.18 0.19 0.22 0.26 0.33 0.37 0.36 0.39 0.45 0.46 0.40 0.35 0.35 0.34 0.33
0.12 0.12 0.12 0.13 0.14 0.13 0.11 0.11 0.12 0.13 0.13 0.13 0.15 0.17 0.18 0.16 0.14 0.13 0.13 0.14 0.14 0.16 0.17 0.18 0.18 0.19 0.18 0.16 0.15 0.15 0.17 0.22 0.25 0.30 0.33 0.34 0.37 0.41 0.42 0.41 0.39 0.40 0.41 0.43
0.14 0.14 0.15 0.17 0.17 0.15 0.13 0.13 0.14 0.15 0.16 0.16 0.18 0.19 0.19 0.18 0.17 0.16 0.15 0.14 0.14 0.16 0.16 0.17 0.19 0.20 0.20 0.17 0.17 0.17 0.19 0.22 0.26 0.27 0.29 0.30 0.34 0.38 0.41 0.42 0.43 0.44 0.44 0.48
0.16 0.15 0.16 0.18 0.19 0.16 0.14 0.13 0.14 0.16 0.18 0.20 0.21 0.22 0.23 0.23 0.23 0.21 0.20 0.19 0.18 0.19 0.20 0.21 0.22 0.22 0.21 0.20 0.21 0.21 0.22 0.24 0.26 0.29 0.31 0.31 0.35 0.40 0.44 0.43 0.42 0.43 0.43 0.47
0.21 0.19 0.18 0.19 0.19 0.19 0.17 0.16 0.15 0.17 0.19 0.19 0.21 0.23 0.24 0.23 0.23 0.22 0.22 0.23 0.22 0.22 0.19 0.18 0.21 0.19 0.18 0.20 0.23 0.25 0.28 0.30 0.31 0.32 0.32 0.33 0.35 0.40 0.43 0.42 0.41 0.42 0.44 0.46
0.23 0.20 0.19 0.18 0.18 0.19 0.18 0.17 0.17 0.19 0.21 0.20 0.20 0.20 0.22 0.21 0.21 0.21 0.23 0.23 0.22 0.20 0.15 0.16 0.17 0.18 0.19 0.21 0.25 0.26 0.29 0.34 0.38 0.40 0.40 0.40 0.41 0.44 0.45 0.43 0.44 0.47 0.47 0.47
0.19 0.18 0.18 0.18 0.18 0.18 0.18 0.17 0.18 0.18 0.19 0.20 0.20 0.21 0.21 0.20 0.19 0.20 0.22 0.25 0.22 0.18 0.13 0.14 0.14 0.15 0.19 0.25 0.29 0.29 0.30 0.33 0.37 0.39 0.40 0.41 0.42 0.45 0.47 0.45 0.46 0.49 0.50 0.50
0.18 0.16 0.15 0.14 0.14 0.14 0.15 0.15 0.15 0.15 0.16 0.18 0.19 0.20 0.20 0.20 0.18 0.19 0.21 0.23 0.23 0.24 0.19 0.16 0.15 0.19 0.26 0.31 0.26 0.26 0.28 0.31 0.35 0.40 0.42 0.43 0.45 0.46 0.48 0.50 0.51 0.52 0.53 0.56
0.19 0.17 0.16 0.15 0.14 0.13 0.16 0.17 0.14 0.15 0.16 0.16 0.17 0.18 0.20 0.23 0.24 0.23 0.22 0.21 0.22 0.27 0.24 0.21 0.24 0.30 0.38 0.31 0.25 0.26 0.28 0.31 0.32 0.35 0.41 0.47 0.49 0.51 0.52 0.52 0.52 0.54 0.56 0.60
0.20 0.18 0.16 0.15 0.14 0.16 0.19 0.19 0.17 0.16 0.17 0.18 0.17 0.16 0.17 0.21 0.25 0.25 0.25 0.28 0.32 0.32 0.27 0.28 0.34 0.40 0.43 0.34 0.31 0.32 0.33 0.35 0.35 0.35 0.38 0.42 0.47 0.51 0.53 0.55 0.58 0.59 0.58 0.58
0.20 0.19 0.19 0.19 0.21 0.23 0.21 0.21 0.21 0.19 0.20 0.22 0.21 0.18 0.17 0.20 0.25 0.28 0.26 0.27 0.35 0.38 0.34 0.36 0.42 0.45 0.41 0.38 0.39 0.39 0.40 0.42 0.44 0.44 0.43 0.45 0.49 0.55 0.59 0.61 0.65 0.68 0.67 0.64
0.22 0.22 0.24 0.27 0.28 0.26 0.25 0.25 0.24 0.22 0.22 0.23 0.23 0.21 0.20 0.21 0.22 0.24 0.25 0.27 0.31 0.39 0.43 0.44 0.43 0.44 0.45 0.47 0.47 0.46 0.45 0.45 0.47 0.47 0.47 0.51 0.56 0.61 0.67 0.71 0.72 0.76 0.74 0.69
0.24 0.25 0.27 0.26 0.26 0.26 0.28 0.28 0.27 0.24 0.24 0.25 0.25 0.23 0.24 0.25 0.27 0.28 0.30 0.33 0.36 0.39 0.46 0.53 0.53 0.53 0.55 0.55 0.55 0.54 0.54 0.54 0.54 0.55 0.56 0.58 0.61 0.64 0.69 0.74 0.78 0.81 0.82 0.79

GEFSNGP_prec_meanprecacc_294.txt.gz
Total_Precipitation_Accumulation
0.31 0.29 0.38 0.60 0.70 0.67 0.66 0.72 0.96 0.98 0.88 0.83 0.84 0.85 0.82 0.84 0.82 0.74 0.68 0.69 0.74 0.80 0.81 0.79 0.77 0.83 0.87 0.95 1.07 1.23 1.38 1.36 1.23 1.06 0.94 0.89 0.83 0.75 0.72 0.71 0.72 0.80 0.84 0.85
0.21 0.20 0.29 0.44 0.53 0.54 0.51 0.52 0.61 0.69 0.69 0.58 0.55 0.58 0.59 0.62 0.58 0.54 0.48 0.45 0.44 0.46 0.46 0.45 0.42 0.43 0.45 0.54 0.70 0.95 1.21 1.20 1.00 0.83 0.70 0.65 0.68 0.71 0.71 0.69 0.73 0.77 0.74 0.75
0.31 0.26 0.28 0.47 0.47 0.44 0.44 0.37 0.41 0.47 0.47 0.42 0.44 0.50 0.51 0.57 0.59 0.46 0.37 0.34 0.33 0.33 0.32 0.32 0.31 0.31 0.34 0.42 0.54 0.71 0.84 0.83 0.73 0.63 0.60 0.64 0.68 0.63 0.64 0.67 0.68 0.69 0.68 0.67
0.33 0.35 0.58 0.75 0.63 0.52 0.48 0.31 0.26 0.27 0.29 0.32 0.43 0.46 0.46 0.45 0.46 0.45 0.34 0.25 0.24 0.24 0.25 0.29 0.30 0.34 0.39 0.45 0.50 0.54 0.57 0.58 0.54 0.53 0.54 0.58 0.60 0.59 0.66 0.71 0.69 0.69 0.71 0.69
0.43 0.48 0.67 0.70 0.59 0.59 0.58 0.43 0.24 0.22 0.23 0.22 0.23 0.25 0.27 0.27 0.26 0.25 0.21 0.18 0.16 0.15 0.16 0.19 0.19 0.20 0.23 0.25 0.27 0.29 0.28 0.28 0.30 0.30 0.33 0.36 0.37 0.44 0.56 0.63 0.66 0.70 0.75 0.75
0.45 0.55 0.68 0.54 0.34 0.34 0.50 0.62 0.23 0.16 0.16 0.15 0.14 0.21 0.22 0.22 0.22 0.19 0.16 0.17 0.16 0.14 0.14 0.16 0.16 0.16 0.15 0.16 0.17 0.17 0.17 0.17 0.19 0.21 0.21 0.21 0.25 0.31 0.37 0.38 0.45 0.56 0.58 0.60
0.41 0.60 0.79 0.58 0.36 0.32 0.57 0.62 0.21 0.13 0.13 0.13 0.14 0.15 0.15 0.18 0.19 0.17 0.15 0.16 0.18 0.17 0.16 0.16 0.17 0.16 0.15 0.16 0.16 0.18 0.22 0.24 0.23 0.22 0.23 0.24 0.27 0.29 0.32 0.32 0.38 0.43 0.48 0.52
0.50 0.80 0.99 0.75 0.52 0.49 0.43 0.22 0.14 0.10 0.10 0.12 0.13 0.12 0.14 0.16 0.17 0.16 0.15 0.15 0.16 0.17 0.18 0.19 0.18 0.16 0.16 0.17 0.17 0.19 0.22 0.23 0.25 0.25 0.26 0.26 0.28 0.31 0.34 0.36 0.37 0.39 0.42 0.47
0.46 0.70 0.72 0.62 0.49 0.37 0.29 0.18 0.10 0.09 0.11 0.14 0.15 0.15 0.17 0.19 0.17 0.17 0.16 0.14 0.14 0.15 0.15 0.16 0.16 0.15 0.15 0.17 0.19 0.20 0.21 0.22 0.24 0.26 0.25 0.23 0.26 0.31 0.35 0.37 0.39 0.42 0.47 0.52
0.26 0.33 0.33 0.31 0.29 0.21 0.18 0.15 0.10 0.10 0.15 0.18 0.20 0.19 0.18 0.18 0.18 0.17 0.16 0.14 0.13 0.14 0.15 0.17 0.17 0.17 0.18 0.18 0.18 0.18 0.23 0.25 0.26 0.25 0.25 0.25 0.27 0.31 0.35 0.38 0.42 0.46 0.52 0.55
0.23 0.22 0.19 0.19 0.19 0.17 0.13 0.10 0.10 0.11 0.16 0.19 0.20 0.20 0.18 0.18 0.20 0.18 0.16 0.15 0.17 0.18 0.17 0.18 0.19 0.21 0.24 0.24 0.21 0.19 0.21 0.22 0.22 0.24 0.26 0.27 0.29 0.31 0.33 0.35 0.43 0.52 0.57 0.60
0.23 0.18 0.19 0.21 0.18 0.14 0.12 0.10 0.09 0.10 0.12 0.15 0.17 0.19 0.18 0.16 0.17 0.20 0.20 0.19 0.20 0.21 0.21 0.21 0.21 0.23 0.24 0.26 0.27 0.27 0.26 0.23 0.22 0.22 0.25 0.28 0.29 0.29 0.32 0.34 0.40 0.44 0.46 0.49
0.16 0.14 0.13 0.14 0.15 0.13 0.11 0.09 0.09 0.09 0.11 0.13 0.14 0.17 0.19 0.17 0.16 0.18 0.19 0.19 0.20 0.21 0.20 0.19 0.19 0.18 0.18 0.21 0.23 0.24 0.25 0.26 0.25 0.24 0.24 0.28 0.29 0.28 0.32 0.32 0.31 0.34 0.38 0.42
0.11 0.12 0.13 0.12 0.12 0.11 0.11 0.11 0.10 0.09 0.09 0.11 0.13 0.15 0.16 0.16 0.14 0.14 0.17 0.18 0.20 0.20 0.18 0.18 0.18 0.17 0.17 0.18 0.20 0.23 0.24 0.25 0.26 0.28 0.29 0.30 0.34 0.37 0.38 0.41 0.41 0.35 0.33 0.36
0.10 0.11 0.12 0.11 0.11 0.10 0.11 0.11 0.12 0.11 0.12 0.13 0.14 0.15 0.16 0.15 0.16 0.15 0.16 0.18 0.18 0.19 0.19 0.20 0.19 0.17 0.17 0.17 0.19 0.19 0.21 0.24 0.27 0.34 0.38 0.37 0.39 0.45 0.46 0.40 0.36 0.36 0.36 0.35
0.12 0.12 0.12 0.13 0.14 0.13 0.11 0.11 0.12 0.13 0.13 0.14 0.16 0.19 0.20 0.18 0.17 0.15 0.15 0.16 0.16 0.18 0.20 0.21 0.21 0.21 0.20 0.18 0.17 0.17 0.19 0.25 0.27 0.31 0.35 0.36 0.38 0.42 0.43 0.42 0.40 0.42 0.43 0.46
0.14 0.14 0.15 0.17 0.17 0.15 0.13 0.13 0.14 0.15 0.16 0.17 0.19 0.20 0.21 0.20 0.19 0.18 0.16 0.15 0.15 0.17 0.18 0.20 0.23 0.23 0.22 0.20 0.19 0.20 0.22 0.25 0.28 0.30 0.31 0.32 0.36 0.40 0.42 0.43 0.45 0.46 0.46 0.50
0.16 0.16 0.16 0.18 0.19 0.16 0.14 0.13 0.14 0.16 0.18 0.20 0.22 0.24 0.25 0.26 0.25 0.24 0.22 0.20 0.19 0.21 0.23 0.24 0.25 0.25 0.24 0.23 0.23 0.23 0.24 0.26 0.28 0.32 0.33 0.33 0.37 0.41 0.45 0.44 0.43 0.45 0.45 0.49
0.21 0.19 0.18 0.19 0.19 0.19 0.17 0.16 0.16 0.17 0.19 0.20 0.22 0.25 0.26 0.26 0.25 0.24 0.23 0.23 0.23 0.23 0.22 0.21 0.24 0.22 0.22 0.24 0.26 0.27 0.29 0.31 0.33 0.34 0.34 0.35 0.37 0.41 0.45 0.44 0.43 0.44 0.46 0.48
0.23 0.20 0.19 0.18 0.18 0.19 0.18 0.17 0.17 0.20 0.22 0.21 0.21 0.21 0.23 0.22 0.22 0.22 0.23 0.24 0.23 0.22 0.17 0.18 0.20 0.21 0.23 0.25 0.27 0.28 0.31 0.35 0.39 0.41 0.41 0.40 0.41 0.44 0.47 0.45 0.46 0.49 0.49 0.49
0.19 0.18 0.18 0.19 0.18 0.18 0.18 0.17 0.18 0.19 0.19 0.20 0.20 0.22 0.22 0.21 0.20 0.21 0.23 0.25 0.23 0.19 0.14 0.16 0.16 0.16 0.21 0.27 0.31 0.31 0.32 0.35 0.38 0.40 0.41 0.42 0.43 0.46 0.48 0.46 0.47 0.50 0.51 0.51
0.19 0.17 0.15 0.14 0.14 0.14 0.15 0.15 0.15 0.15 0.17 0.19 0.20 0.21 0.20 0.20 0.19 0.20 0.21 0.24 0.24 0.25 0.19 0.16 0.16 0.20 0.27 0.33 0.28 0.28 0.30 0.33 0.36 0.41 0.43 0.44 0.45 0.47 0.49 0.51 0.52 0.53 0.55 0.57
0.20 0.18 0.16 0.15 0.14 0.14 0.16 0.17 0.15 0.15 0.17 0.17 0.18 0.19 0.21 0.24 0.24 0.24 0.23 0.22 0.23 0.27 0.24 0.21 0.24 0.31 0.39 0.32 0.26 0.28 0.30 0.32 0.33 0.36 0.42 0.47 0.50 0.51 0.53 0.52 0.53 0.55 0.57 0.60
0.22 0.20 0.18 0.17 0.15 0.17 0.20 0.20 0.18 0.17 0.18 0.19 0.18 0.17 0.18 0.22 0.25 0.25 0.25 0.29 0.32 0.32 0.27 0.28 0.34 0.40 0.43 0.34 0.32 0.32 0.34 0.35 0.36 0.36 0.38 0.43 0.48 0.51 0.54 0.56 0.58 0.60 0.58 0.58
0.22 0.21 0.20 0.20 0.22 0.24 0.22 0.21 0.22 0.20 0.21 0.24 0.23 0.19 0.18 0.21 0.26 0.28 0.26 0.28 0.35 0.38 0.34 0.36 0.42 0.45 0.42 0.39 0.39 0.39 0.41 0.43 0.45 0.45 0.44 0.46 0.50 0.56 0.60 0.62 0.66 0.68 0.68 0.65
0.25 0.24 0.25 0.27 0.28 0.26 0.25 0.26 0.25 0.23 0.23 0.24 0.24 0.21 0.21 0.21 0.23 0.24 0.25 0.28 0.31 0.40 0.44 0.45 0.44 0.45 0.46 0.48 0.48 0.47 0.46 0.47 0.48 0.48 0.48 0.52 0.57 0.62 0.68 0.72 0.73 0.76 0.75 0.70
0.26 0.27 0.28 0.27 0.26 0.27 0.28 0.29 0.27 0.25 0.24 0.26 0.26 0.23 0.24 0.26 0.27 0.28 0.30 0.33 0.36 0.40 0.47 0.54 0.53 0.54 0.56 0.56 0.56 0.56 0.56 0.56 0.56 0.57 0.57 0.59 0.63 0.66 0.70 0.75 0.78 0.81 0.83 0.80

GEFSNGP_prec_meanprecacc_300.txt.gz
Total_Precipitation_Accumulation
0.31 0.30 0.39 0.61 0.71 0.68 0.67 0.74 0.98 0.99 0.89 0.85 0.85 0.86 0.82 0.85 0.83 0.74 0.68 0.69 0.74 0.80 0.82 0.80 0.78 0.85 0.89 0.97 1.10 1.26 1.42 1.40 1.27 1.10 0.97 0.91 0.86 0.78 0.76 0.75 0.76 0.83 0.88 0.88
0.22 0.20 0.29 0.44 0.53 0.54 0.52 0.53 0.62 0.69 0.69 0.59 0.56 0.59 0.59 0.63 0.59 0.55 0.49 0.45 0.44 0.46 0.47 0.45 0.43 0.43 0.46 0.56 0.72 0.97 1.24 1.24 1.04 0.87 0.74 0.68 0.70 0.73 0.73 0.71 0.76 0.79 0.77 0.78
0.33 0.27 0.28 0.48 0.48 0.45 0.46 0.39 0.41 0.47 0.47 0.42 0.45 0.51 0.52 0.57 0.59 0.47 0.38 0.35 0.33 0.33 0.32 0.32 0.32 0.32 0.34 0.43 0.55 0.72 0.86 0.85 0.76 0.66 0.62 0.67 0.70 0.65 0.67 0.69 0.70 0.71 0.70 0.69
0.34 0.36 0.60 0.76 0.64 0.53 0.49 0.32 0.27 0.28 0.29 0.33 0.44 0.46 0.47 0.45 0.46 0.46 0.34 0.26 0.25 0.25 0.25 0.29 0.30 0.34 0.39 0.45 0.51 0.55 0.58 0.60 0.56 0.54 0.56 0.60 0.62 0.61 0.67 0.73 0.70 0.70 0.73 0.71
0.45 0.51 0.69 0.71 0.60 0.60 0.59 0.44 0.24 0.22 0.23 0.22 0.23 0.25 0.27 0.28 0.26 0.26 0.22 0.18 0.17 0.17 0.17 0.20 0.19 0.21 0.23 0.26 0.28 0.30 0.29 0.29 0.32 0.33 0.36 0.38 0.39 0.46 0.58 0.65 0.68 0.71 0.76 0.77
0.48 0.58 0.70 0.55 0.34 0.35 0.51 0.63 0.23 0.16 0.16 0.15 0.14 0.21 0.22 0.23 0.22 0.19 0.16 0.18 0.17 0.14 0.15 0.16 0.16 0.16 0.16 0.17 0.18 0.18 0.18 0.18 0.21 0.23 0.23 0.24 0.28 0.33 0.39 0.40 0.47 0.58 0.59 0.61
0.43 0.63 0.81 0.59 0.37 0.32 0.58 0.62 0.22 0.13 0.13 0.13 0.14 0.15 0.15 0.18 0.20 0.17 0.16 0.17 0.18 0.17 0.16 0.17 0.19 0.17 0.16 0.17 0.18 0.20 0.23 0.25 0.24 0.23 0.24 0.25 0.28 0.30 0.32 0.34 0.39 0.44 0.49 0.53
0.53 0.83 1.01 0.76 0.53 0.51 0.44 0.22 0.14 0.10 0.10 0.12 0.13 0.12 0.14 0.16 0.17 0.16 0.15 0.15 0.16 0.17 0.19 0.20 0.19 0.17 0.17 0.17 0.18 0.20 0.22 0.24 0.26 0.26 0.26 0.27 0.29 0.32 0.35 0.37 0.37 0.40 0.43 0.49
0.48 0.72 0.73 0.63 0.49 0.38 0.30 0.19 0.11 0.09 0.11 0.14 0.15 0.15 0.17 0.19 0.17 0.17 0.16 0.14 0.14 0.16 0.15 0.17 0.17 0.16 0.16 0.17 0.19 0.20 0.22 0.24 0.26 0.27 0.27 0.25 0.26 0.31 0.35 0.37 0.39 0.43 0.48 0.54
0.26 0.34 0.33 0.32 0.30 0.22 0.18 0.15 0.11 0.11 0.15 0.18 0.20 0.19 0.18 0.18 0.18 0.17 0.16 0.14 0.13 0.14 0.16 0.17 0.18 0.18 0.19 0.18 0.18 0.19 0.23 0.26 0.28 0.27 0.27 0.27 0.28 0.32 0.35 0.38 0.42 0.47 0.52 0.56
0.24 0.22 0.20 0.19 0.19 0.17 0.13 0.11 0.10 0.12 0.16 0.19 0.20 0.20 0.18 0.18 0.20 0.18 0.16 0.16 0.17 0.19 0.17 0.18 0.20 0.22 0.25 0.25 0.22 0.20 0.22 0.24 0.24 0.25 0.27 0.28 0.30 0.31 0.33 0.35 0.44 0.53 0.58 0.61
0.24 0.18 0.20 0.22 0.19 0.14 0.12 0.10 0.09 0.10 0.12 0.15 0.17 0.19 0.18 0.16 0.18 0.20 0.20 0.20 0.21 0.22 0.21 0.21 0.22 0.24 0.26 0.27 0.28 0.28 0.27 0.25 0.24 0.23 0.26 0.29 0.29 0.30 0.32 0.34 0.40 0.44 0.47 0.50
0.16 0.14 0.13 0.14 0.15 0.14 0.11 0.10 0.09 0.10 0.11 0.13 0.15 0.17 0.19 0.18 0.17 0.18 0.20 0.21 0.21 0.22 0.22 0.21 0.21 0.20 0.20 0.23 0.24 0.25 0.26 0.27 0.26 0.25 0.26 0.29 0.30 0.29 0.32 0.32 0.31 0.34 0.38 0.42
0.11 0.12 0.13 0.12 0.12 0.11 0.11 0.11 0.10 0.09 0.09 0.11 0.13 0.15 0.16 0.16 0.15 0.15 0.18 0.20 0.22 0.22 0.20 0.20 0.20 0.19 0.19 0.20 0.23 0.25 0.26 0.27 0.28 0.31 0.32 0.32 0.36 0.38 0.40 0.42 0.41 0.35 0.34 0.37
0.10 0.11 0.12 0.11 0.11 0.11 0.11 0.12 0.12 0.12 0.12 0.13 0.14 0.15 0.16 0.16 0.16 0.16 0.18 0.19 0.20 0.21 0.21 0.22 0.20 0.18 0.19 0.20 0.22 0.22 0.24 0.27 0.29 0.35 0.40 0.40 0.42 0.48 0.48 0.41 0.37 0.37 0.36 0.36
0.13 0.12 0.12 0.13 0.14 0.13 0.11 0.11 0.12 0.13 0.13 0.14 0.16 0.19 0.21 0.19 0.17 0.16 0.17 0.18 0.19 0.20 0.21 0.22 0.22 0.22 0.20 0.19 0.19 0.19 0.21 0.27 0.30 0.33 0.36 0.38 0.40 0.44 0.45 0.43 0.41 0.43 0.44 0.47
0.15 0.15 0.15 0.17 0.17 0.15 0.13 0.13 0.14 0.15 0.16 0.17 0.19 0.20 0.21 0.21 0.20 0.19 0.19 0.18 0.19 0.20 0.20 0.21 0.24 0.25 0.24 0.21 0.20 0.21 0.23 0.26 0.30 0.31 0.33 0.34 0.37 0.42 0.44 0.45 0.46 0.47 0.47 0.51
0.16 0.16 0.16 0.18 0.19 0.16 0.14 0.13 0.14 0.16 0.18 0.21 0.22 0.24 0.26 0.26 0.27 0.25 0.24 0.22 0.22 0.24 0.25 0.25 0.26 0.26 0.25 0.23 0.23 0.24 0.25 0.27 0.29 0.33 0.35 0.34 0.38 0.43 0.47 0.46 0.45 0.46 0.47 0.50
0.21 0.19 0.18 0.19 0.19 0.19 0.17 0.16 0.16 0.17 0.20 0.20 0.22 0.25 0.26 0.26 0.26 0.25 0.25 0.25 0.25 0.26 0.24 0.23 0.26 0.23 0.23 0.25 0.27 0.28 0.30 0.32 0.33 0.35 0.35 0.36 0.38 0.42 0.46 0.45 0.44 0.45 0.47 0.49
0.23 0.20 0.19 0.19 0.18 0.19 0.19 0.17 0.17 0.20 0.22 0.21 0.21 0.21 0.23 0.22 0.22 0.23 0.25 0.26 0.26 0.24 0.20 0.21 0.22 0.22 0.24 0.25 0.28 0.28 0.31 0.36 0.40 0.42 0.42 0.41 0.42 0.46 0.48 0.46 0.48 0.50 0.50 0.50
0.19 0.18 0.19 0.19 0.18 0.18 0.18 0.17 0.18 0.19 0.20 0.21 0.21 0.22 0.23 0.21 0.20 0.21 0.24 0.27 0.25 0.21 0.16 0.18 0.18 0.18 0.22 0.29 0.33 0.33 0.34 0.36 0.39 0.41 0.42 0.43 0.45 0.47 0.49 0.47 0.49 0.52 0.53 0.53
0.19 0.17 0.16 0.15 0.14 0.15 0.16 0.15 0.16 0.15 0.17 0.19 0.21 0.22 0.22 0.22 0.21 0.22 0.23 0.25 0.26 0.26 0.21 0.18 0.18 0.22 0.30 0.35 0.31 0.31 0.33 0.35 0.38 0.42 0.44 0.45 0.47 0.48 0.51 0.52 0.53 0.54 0.55 0.58
0.22 0.19 0.17 0.16 0.15 0.15 0.17 0.18 0.16 0.16 0.18 0.18 0.19 0.20 0.23 0.26 0.27 0.26 0.25 0.23 0.24 0.29 0.26 0.24 0.27 0.34 0.42 0.35 0.30 0.31 0.33 0.35 0.36 0.39 0.44 0.49 0.52 0.53 0.55 0.54 0.54 0.56 0.58 0.61
0.23 0.21 0.19 0.18 0.17 0.19 0.22 0.22 0.20 0.19 0.21 0.22 0.20 0.19 0.20 0.24 0.27 0.27 0.27 0.31 0.34 0.35 0.30 0.31 0.37 0.43 0.46 0.37 0.35 0.36 0.37 0.39 0.39 0.39 0.42 0.46 0.51 0.54 0.57 0.59 0.61 0.62 0.60 0.59
0.23 0.21 0.20 0.21 0.23 0.25 0.24 0.23 0.24 0.22 0.24 0.27 0.25 0.22 0.21 0.24 0.29 0.31 0.29 0.30 0.37 0.40 0.36 0.38 0.44 0.47 0.43 0.40 0.41 0.41 0.43 0.46 0.48 0.48 0.46 0.48 0.53 0.58 0.62 0.64 0.67 0.70 0.69 0.66
0.26 0.24 0.25 0.28 0.28 0.27 0.26 0.26 0.25 0.24 0.24 0.25 0.25 0.23 0.22 0.23 0.25 0.26 0.27 0.29 0.32 0.41 0.45 0.46 0.45 0.46 0.47 0.49 0.49 0.49 0.48 0.49 0.50 0.50 0.50 0.54 0.59 0.64 0.70 0.74 0.74 0.77 0.76 0.71
0.27 0.28 0.28 0.27 0.26 0.27 0.28 0.29 0.28 0.26 0.25 0.27 0.27 0.24 0.24 0.27 0.28 0.29 0.31 0.34 0.37 0.40 0.48 0.54 0.54 0.54 0.56 0.56 0.56 0.57 0.56 0.57 0.57 0.58 0.58 0.60 0.63 0.66 0.70 0.76 0.79 0.83 0.84 0.81

GEFSNGP_prec_meanprecacc_306.txt.gz
Total_Precipitation_Accumulation
0.32 0.31 0.39 0.62 0.72 0.71 0.70 0.76 0.99 1.00 0.91 0.88 0.87 0.88 0.84 0.86 0.84 0.75 0.69 0.69 0.74 0.81 0.83 0.80 0.79 0.86 0.92 1.00 1.14 1.29 1.44 1.43 1.30 1.13 0.99 0.93 0.89 0.80 0.78 0.77 0.79 0.86 0.90 0.91
0.23 0.22 0.30 0.45 0.54 0.55 0.54 0.54 0.63 0.70 0.70 0.60 0.58 0.61 0.61 0.64 0.60 0.55 0.49 0.45 0.44 0.47 0.47 0.46 0.44 0.45 0.47 0.58 0.74 0.99 1.26 1.26 1.07 0.91 0.77 0.71 0.73 0.76 0.76 0.73 0.78 0.81 0.78 0.80
0.34 0.28 0.29 0.49 0.50 0.46 0.47 0.40 0.42 0.48 0.47 0.43 0.46 0.51 0.52 0.58 0.60 0.47 0.38 0.35 0.34 0.33 0.33 0.33 0.33 0.33 0.36 0.44 0.56 0.74 0.87 0.87 0.79 0.70 0.66 0.71 0.75 0.70 0.70 0.72 0.73 0.74 0.72 0.71
0.36 0.38 0.62 0.77 0.65 0.54 0.50 0.33 0.27 0.28 0.30 0.33 0.44 0.47 0.47 0.45 0.46 0.46 0.35 0.26 0.26 0.25 0.25 0.30 0.31 0.36 0.41 0.47 0.53 0.57 0.59 0.62 0.59 0.58 0.59 0.64 0.68 0.66 0.72 0.76 0.73 0.72 0.75 0.72
0.46 0.52 0.70 0.73 0.61 0.60 0.59 0.45 0.25 0.22 0.24 0.23 0.24 0.26 0.27 0.28 0.26 0.26 0.22 0.18 0.17 0.17 0.18 0.20 0.20 0.22 0.24 0.28 0.30 0.32 0.31 0.33 0.36 0.38 0.40 0.42 0.44 0.51 0.62 0.68 0.70 0.74 0.79 0.79
0.49 0.59 0.71 0.56 0.35 0.35 0.51 0.64 0.24 0.17 0.17 0.16 0.15 0.22 0.22 0.23 0.23 0.19 0.17 0.18 0.17 0.15 0.15 0.17 0.17 0.18 0.17 0.18 0.20 0.21 0.21 0.22 0.25 0.27 0.27 0.28 0.33 0.38 0.45 0.46 0.52 0.62 0.63 0.64
0.44 0.64 0.81 0.60 0.38 0.34 0.59 0.64 0.22 0.14 0.14 0.14 0.15 0.16 0.16 0.19 0.20 0.17 0.16 0.17 0.18 0.18 0.17 0.18 0.20 0.19 0.18 0.19 0.20 0.22 0.25 0.27 0.27 0.26 0.27 0.29 0.32 0.35 0.37 0.40 0.46 0.51 0.54 0.57
0.54 0.85 1.02 0.76 0.53 0.51 0.45 0.23 0.14 0.11 0.11 0.13 0.14 0.13 0.15 0.17 0.18 0.16 0.15 0.15 0.16 0.17 0.20 0.21 0.19 0.18 0.18 0.19 0.20 0.23 0.26 0.28 0.29 0.28 0.29 0.30 0.32 0.36 0.39 0.41 0.42 0.46 0.49 0.53
0.49 0.73 0.74 0.63 0.50 0.39 0.30 0.20 0.12 0.10 0.12 0.15 0.16 0.16 0.18 0.19 0.17 0.17 0.16 0.15 0.15 0.16 0.16 0.17 0.17 0.17 0.17 0.19 0.21 0.23 0.26 0.27 0.30 0.30 0.29 0.27 0.30 0.35 0.38 0.41 0.42 0.46 0.50 0.57
0.27 0.34 0.33 0.32 0.30 0.22 0.19 0.16 0.12 0.12 0.16 0.20 0.21 0.20 0.18 0.19 0.19 0.17 0.16 0.14 0.13 0.15 0.16 0.18 0.18 0.18 0.20 0.20 0.20 0.21 0.26 0.30 0.31 0.31 0.30 0.30 0.31 0.35 0.38 0.41 0.44 0.48 0.54 0.58
0.24 0.23 0.20 0.19 0.20 0.18 0.14 0.11 0.10 0.12 0.18 0.21 0.21 0.21 0.19 0.18 0.20 0.19 0.16 0.16 0.18 0.19 0.18 0.19 0.20 0.22 0.26 0.27 0.24 0.22 0.24 0.27 0.28 0.29 0.31 0.32 0.32 0.33 0.35 0.37 0.46 0.54 0.59 0.62
0.24 0.19 0.20 0.22 0.19 0.15 0.12 0.10 0.09 0.10 0.13 0.16 0.18 0.20 0.20 0.17 0.19 0.21 0.21 0.20 0.21 0.22 0.22 0.22 0.22 0.25 0.27 0.29 0.30 0.30 0.29 0.28 0.27 0.26 0.28 0.31 0.31 0.31 0.33 0.35 0.41 0.46 0.48 0.51
0.17 0.14 0.14 0.15 0.16 0.14 0.11 0.10 0.09 0.10 0.12 0.13 0.15 0.18 0.20 0.20 0.18 0.19 0.21 0.21 0.22 0.22 0.23 0.22 0.21 0.21 0.21 0.24 0.26 0.28 0.29 0.31 0.30 0.29 0.28 0.31 0.32 0.30 0.33 0.33 0.32 0.35 0.39 0.43
0.11 0.12 0.13 0.12 0.12 0.12 0.11 0.11 0.10 0.09 0.10 0.11 0.13 0.16 0.17 0.17 0.16 0.16 0.19 0.20 0.23 0.23 0.21 0.21 0.20 0.20 0.20 0.22 0.25 0.28 0.29 0.30 0.32 0.34 0.35 0.35 0.37 0.40 0.41 0.43 0.42 0.36 0.34 0.38
0.10 0.11 0.12 0.11 0.11 0.11 0.11 0.12 0.12 0.12 0.12 0.13 0.14 0.16 0.16 0.17 0.17 0.17 0.18 0.20 0.20 0.21 0.22 0.23 0.21 0.20 0.20 0.21 0.23 0.24 0.26 0.29 0.32 0.39 0.43 0.43 0.44 0.50 0.51 0.43 0.39 0.38 0.37 0.37
0.13 0.12 0.12 0.13 0.14 0.13 0.11 0.12 0.13 0.13 0.13 0.14 0.16 0.20 0.21 0.20 0.18 0.17 0.17 0.19 0.19 0.21 0.22 0.23 0.23 0.23 0.22 0.20 0.20 0.20 0.23 0.30 0.32 0.36 0.39 0.40 0.42 0.47 0.49 0.47 0.44 0.46 0.47 0.49
0.15 0.15 0.15 0.17 0.17 0.15 0.13 0.13 0.14 0.15 0.16 0.17 0.19 0.21 0.22 0.21 0.20 0.20 0.19 0.19 0.20 0.21 0.21 0.23 0.25 0.26 0.26 0.22 0.21 0.22 0.24 0.27 0.31 0.33 0.35 0.36 0.40 0.44 0.46 0.47 0.49 0.50 0.50 0.54
0.16 0.16 0.16 0.18 0.19 0.16 0.14 0.13 0.15 0.17 0.19 0.21 0.23 0.24 0.26 0.27 0.27 0.26 0.25 0.23 0.23 0.25 0.26 0.27 0.28 0.27 0.26 0.24 0.24 0.25 0.26 0.28 0.30 0.34 0.36 0.37 0.41 0.46 0.50 0.49 0.48 0.49 0.49 0.53
0.21 0.19 0.18 0.19 0.20 0.19 0.17 0.16 0.16 0.18 0.20 0.21 0.23 0.25 0.27 0.27 0.27 0.26 0.26 0.26 0.27 0.28 0.27 0.26 0.28 0.25 0.24 0.27 0.29 0.29 0.31 0.33 0.35 0.36 0.37 0.38 0.40 0.44 0.49 0.48 0.47 0.48 0.50 0.52
0.23 0.21 0.19 0.19 0.18 0.19 0.19 0.17 0.17 0.20 0.22 0.22 0.22 0.22 0.23 0.23 0.23 0.24 0.26 0.28 0.29 0.28 0.23 0.23 0.25 0.25 0.26 0.28 0.30 0.30 0.33 0.38 0.42 0.44 0.44 0.43 0.44 0.47 0.50 0.48 0.50 0.53 0.53 0.53
0.19 0.18 0.19 0.19 0.18 0.19 0.19 0.18 0.19 0.20 0.21 0.22 0.22 0.23 0.23 0.22 0.21 0.22 0.25 0.30 0.29 0.25 0.20 0.22 0.21 0.21 0.25 0.32 0.35 0.35 0.36 0.38 0.41 0.43 0.43 0.44 0.46 0.48 0.50 0.49 0.50 0.54 0.55 0.55
0.19 0.17 0.16 0.15 0.15 0.15 0.16 0.16 0.16 0.16 0.18 0.20 0.21 0.22 0.23 0.23 0.22 0.23 0.25 0.28 0.30 0.31 0.24 0.21 0.20 0.25 0.32 0.38 0.34 0.34 0.35 0.37 0.40 0.44 0.46 0.47 0.49 0.50 0.52 0.53 0.55 0.55 0.57 0.60
0.22 0.19 0.17 0.16 0.16 0.15 0.18 0.19 0.17 0.17 0.19 0.19 0.19 0.21 0.24 0.27 0.29 0.29 0.28 0.27 0.27 0.32 0.28 0.26 0.29 0.37 0.44 0.38 0.32 0.34 0.36 0.37 0.37 0.41 0.46 0.52 0.54 0.55 0.56 0.56 0.56 0.57 0.60 0.63
0.24 0.22 0.19 0.19 0.18 0.20 0.23 0.23 0.22 0.21 0.22 0.24 0.22 0.21 0.22 0.26 0.30 0.30 0.30 0.34 0.36 0.36 0.32 0.33 0.39 0.45 0.48 0.40 0.38 0.38 0.40 0.41 0.40 0.41 0.44 0.48 0.53 0.56 0.58 0.60 0.62 0.63 0.62 0.61
0.24 0.22 0.21 0.21 0.24 0.27 0.25 0.24 0.24 0.23 0.24 0.28 0.27 0.24 0.23 0.26 0.31 0.33 0.31 0.32 0.39 0.42 0.37 0.39 0.45 0.48 0.44 0.42 0.43 0.43 0.45 0.48 0.50 0.50 0.48 0.49 0.54 0.59 0.63 0.65 0.69 0.71 0.71 0.68
0.27 0.25 0.26 0.29 0.30 0.28 0.27 0.27 0.26 0.25 0.24 0.26 0.26 0.24 0.24 0.25 0.26 0.27 0.28 0.30 0.33 0.42 0.46 0.46 0.45 0.47 0.48 0.50 0.51 0.50 0.50 0.50 0.51 0.51 0.51 0.55 0.59 0.64 0.71 0.75 0.76 0.79 0.78 0.73
0.28 0.28 0.29 0.28 0.27 0.28 0.29 0.30 0.29 0.26 0.25 0.27 0.27 0.25 0.26 0.28 0.29 0.30 0.32 0.35 0.38 0.41 0.48 0.54 0.54 0.55 0.57 0.57 0.57 0.57 0.57 0.57 0.57 0.58 0.59 0.61 0.64 0.67 0.71 0.76 0.80 0.84 0.85 0.82